Girona Airport

Jump to: basic info | weather | frequencies | runways | comments

Related pages: nearby airports | nearby navaids | notams | map

Basic information (top)

Codes: GRO LEGE
Location: lon 41.901001, lat 2.760550, elev 468 ft / 143 m msl
Status: medium_airport
Scheduled airline service: yes
Links: Wikipedia Mobile

Weather (top)

Current conditions (rec'd 2014/09/16 09:00Z):

LEGE 160900Z 02005KT 9999 FEW020 22/22 Q1013

Airport forecast (rec'd 2014/09/16 06:27Z):

TAF LEGE 160500Z 1606/1706 04004KT 9999 SCT030 TX28/1613Z TN17/1706Z PROB40 
      TEMPO 1606/1608 3000 BR SCT010 PROB30 
      TEMPO 1606/1608 0800 BCFG SCT010 
      TEMPO 1612/1618 13007KT PROB30 
      TEMPO 1616/1703 5000 TSRA FEW030CB

Frequencies (top)

Verify before use: may be inaccurate or out of date.

APP: 120.9 MHz (APP)
GND: 121.7 MHz (GND)
TWR: 118.5 MHz (TWR)

Runways (top)

02/20: 7,874 x 148 ft (2,400 x 45 m) — paved — lighted

Latest comments (top)

No comments yet for Girona Airport

More... (top)

See also NOTAMs and nearby airports and navaids, or visit the Girona Airport page at the main OurAirports website..